TimeMDT,TemperatureF,Dew PointF,Humidity,Sea Level PressureIn,VisibilityMPH,Wind Direction,Wind SpeedMPH,Gust SpeedMPH,PrecipitationIn,Events,Conditions,WindDirDegrees,DateUTC
12:15 AM,39.2,21.2,49,29.96,10.0,NE,3.5,-,N/A,,Clear,40,2012-10-09 06:15:00
12:35 AM,39.2,24.8,56,29.97,10.0,Calm,Calm,-,N/A,,Clear,0,2012-10-09 06:35:00
12:55 AM,37.4,21.2,52,29.97,10.0,Calm,Calm,-,N/A,,Clear,0,2012-10-09 06:55:00
1:15 AM,37.4,23.0,56,29.97,10.0,Calm,Calm,-,N/A,,Clear,0,2012-10-09 07:15:00
1:55 AM,35.6,21.2,56,29.97,7.0,Calm,Calm,-,N/A,,Clear,0,2012-10-09 07:55:00
2:15 AM,35.6,21.2,56,29.97,10.0,Calm,Calm,-,N/A,,Clear,0,2012-10-09 08:15:00
2:35 AM,35.6,24.8,65,29.98,10.0,Calm,Calm,-,N/A,,Clear,0,2012-10-09 08:35:00
2:55 AM,37.4,23.0,56,29.99,10.0,Calm,Calm,-,N/A,,Clear,0,2012-10-09 08:55:00
3:15 AM,33.8,21.2,60,29.99,10.0,Calm,Calm,-,N/A,,Clear,0,2012-10-09 09:15:00
3:35 AM,35.6,23.0,60,29.99,10.0,Calm,Calm,-,N/A,,Clear,0,2012-10-09 09:35:00
3:55 AM,33.8,21.2,60,29.99,9.0,Calm,Calm,-,N/A,,Clear,0,2012-10-09 09:55:00
4:15 AM,33.8,21.2,60,29.99,10.0,Calm,Calm,-,N/A,,Clear,0,2012-10-09 10:15:00
4:35 AM,33.8,21.2,60,29.99,10.0,Calm,Calm,-,N/A,,Clear,0,2012-10-09 10:35:00
4:55 AM,32.0,21.2,64,30.00,10.0,ENE,3.5,-,N/A,,Clear,70,2012-10-09 10:55:00
5:15 AM,32.0,21.2,64,30.00,9.0,Calm,Calm,-,N/A,,Clear,0,2012-10-09 11:15:00
5:55 AM,33.8,24.8,70,30.00,10.0,Calm,Calm,-,N/A,,Clear,0,2012-10-09 11:55:00
6:15 AM,30.2,21.2,69,30.01,10.0,Calm,Calm,-,N/A,,Clear,0,2012-10-09 12:15:00
6:35 AM,30.2,19.4,64,30.02,10.0,NE,4.6,-,N/A,,Clear,50,2012-10-09 12:35:00
6:55 AM,28.4,17.6,64,30.02,10.0,Calm,Calm,-,N/A,,Clear,0,2012-10-09 12:55:00
7:35 AM,30.2,21.2,69,30.03,10.0,Calm,Calm,-,N/A,,Clear,0,2012-10-09 13:35:00
7:55 AM,30.2,21.2,69,30.03,10.0,Calm,Calm,-,N/A,,Clear,0,2012-10-09 13:55:00
8:15 AM,30.2,21.2,69,30.04,10.0,Calm,Calm,-,N/A,,Clear,0,2012-10-09 14:15:00
8:35 AM,30.2,19.4,64,30.04,10.0,NNE,3.5,-,N/A,,Clear,30,2012-10-09 14:35:00
8:55 AM,30.2,19.4,64,30.05,8.0,East,3.5,-,N/A,,Clear,80,2012-10-09 14:55:00
9:15 AM,33.8,24.8,70,30.06,7.0,Calm,Calm,-,N/A,,Clear,0,2012-10-09 15:15:00
9:35 AM,37.4,24.8,60,30.06,7.0,Calm,Calm,-,N/A,,Clear,0,2012-10-09 15:35:00
10:15 AM,44.6,26.6,49,30.06,3.0,NNE,5.8,-,N/A,,Clear,30,2012-10-09 16:15:00
10:35 AM,48.2,26.6,43,30.06,10.0,NNE,6.9,-,N/A,,Clear,30,2012-10-09 16:35:00
10:55 AM,51.8,28.4,41,30.07,10.0,NNE,5.8,-,N/A,,Clear,20,2012-10-09 16:55:00
11:15 AM,51.8,26.6,38,30.07,10.0,Calm,Calm,-,N/A,,Clear,0,2012-10-09 17:15:00
11:36 AM,53.6,26.6,35,30.06,10.0,Calm,Calm,-,N/A,,Clear,0,2012-10-09 17:36:00
11:55 AM,53.6,26.6,35,30.06,10.0,Calm,Calm,-,N/A,,Clear,0,2012-10-09 17:55:00
12:35 PM,59.0,26.6,29,30.06,10.0,Calm,Calm,-,N/A,,Clear,0,2012-10-09 18:35:00
12:55 PM,60.8,24.8,25,30.06,10.0,Calm,Calm,-,N/A,,Clear,0,2012-10-09 18:55:00
1:15 PM,62.6,24.8,24,30.05,10.0,WNW,3.5,-,N/A,,Clear,300,2012-10-09 19:15:00
1:35 PM,62.6,24.8,24,30.05,10.0,WNW,4.6,-,N/A,,Clear,300,2012-10-09 19:35:00
1:55 PM,64.4,24.8,22,30.04,10.0,West,4.6,-,N/A,,Clear,280,2012-10-09 19:55:00
2:15 PM,66.2,26.6,23,30.03,10.0,NNW,6.9,-,N/A,,Clear,330,2012-10-09 20:15:00
2:55 PM,68.0,26.6,21,30.02,10.0,North,5.8,-,N/A,,Clear,350,2012-10-09 20:55:00
3:55 PM,69.8,28.4,21,30.00,10.0,North,4.6,-,N/A,,Clear,360,2012-10-09 21:55:00
4:15 PM,71.6,28.4,20,29.99,10.0,Calm,Calm,-,N/A,,Clear,0,2012-10-09 22:15:00
4:35 PM,71.6,28.4,20,29.99,10.0,NNW,5.8,-,N/A,,Clear,340,2012-10-09 22:35:00
4:55 PM,71.6,28.4,20,29.98,10.0,NNW,9.2,-,N/A,,Clear,340,2012-10-09 22:55:00
5:15 PM,71.6,28.4,20,29.98,10.0,North,6.9,-,N/A,,Clear,350,2012-10-09 23:15:00
5:35 PM,71.6,28.4,20,29.97,10.0,NW,4.6,-,N/A,,Clear,320,2012-10-09 23:35:00
5:55 PM,71.6,28.4,20,29.97,10.0,NNW,6.9,-,N/A,,Clear,330,2012-10-09 23:55:00
6:15 PM,71.6,28.4,20,29.97,5.0,NNW,4.6,-,N/A,,Clear,330,2012-10-10 00:15:00
6:35 PM,69.8,28.4,21,29.97,7.0,Calm,Calm,-,N/A,,Clear,0,2012-10-10 00:35:00
6:55 PM,69.8,28.4,21,29.96,10.0,West,3.5,-,N/A,,Clear,260,2012-10-10 00:55:00
7:15 PM,66.2,28.4,24,29.96,10.0,WSW,3.5,-,N/A,,Clear,240,2012-10-10 01:15:00
7:35 PM,64.4,28.4,26,29.97,10.0,SSW,4.6,-,N/A,,Clear,210,2012-10-10 01:35:00
7:55 PM,62.6,30.2,30,29.97,10.0,SW,4.6,-,N/A,,Clear,220,2012-10-10 01:55:00
8:15 PM,60.8,30.2,31,29.97,10.0,SSW,5.8,-,N/A,,Clear,210,2012-10-10 02:15:00
8:35 PM,59.0,35.6,42,29.97,10.0,SW,4.6,-,N/A,,Clear,230,2012-10-10 02:35:00
8:55 PM,57.2,35.6,44,29.97,10.0,WSW,5.8,-,N/A,,Clear,240,2012-10-10 02:55:00
9:15 PM,57.2,33.8,41,29.97,10.0,SW,3.5,-,N/A,,Clear,230,2012-10-10 03:15:00
9:35 PM,57.2,33.8,41,29.97,10.0,WSW,3.5,-,N/A,,Clear,250,2012-10-10 03:35:00
9:55 PM,48.2,30.2,50,29.98,10.0,ENE,5.8,-,N/A,,Clear,60,2012-10-10 03:55:00
10:15 PM,50.0,30.2,47,29.99,10.0,ENE,8.1,-,N/A,,Clear,60,2012-10-10 04:15:00
10:35 PM,48.2,30.2,50,29.99,10.0,ENE,6.9,-,N/A,,Clear,60,2012-10-10 04:35:00
10:55 PM,46.4,28.4,50,29.99,0.8,East,3.5,-,N/A,,Unknown,100,2012-10-10 04:55:00
11:15 PM,46.4,30.2,53,29.99,1.2,East,3.5,-,N/A,,Clear,90,2012-10-10 05:15:00
11:55 PM,46.4,30.2,53,30.00,10.0,Calm,Calm,-,N/A,,Clear,0,2012-10-10 05:55:00